DW8454 Weather Reports


Display with metric or nautical units.
time (UTC)temp
F
wind
direction
speed
MPH
gust
MPH
rain 1hr
in
rain 24hr
in
rain mn
in
humidity
%
barometer
mb
20220927101454 50 249 3.0 8.0 0.00 0.02 0.00 89 1009.5
20220927095319 50 248 3.0 8.0 0.00 0.02 0.00 88 1009.2
20220927094322 50 251 5.0 8.0 0.00 0.02 0.00 88 1009.3
20220927093323 50 242 4.0 8.0 0.00 0.02 0.00 89 1009.2
20220927092346 50 258 3.0 9.0 0.00 0.02 0.00 88 1009.2
20220927091352 51 248 4.0 9.0 0.00 0.02 0.00 88 1009.3
20220927090416 51 253 4.0 8.0 0.00 0.02 0.00 88 1009.3
20220927085352 51 256 4.0 8.0 0.00 0.02 0.00 88 1009.2
20220927083136 51 256 4.0 8.0 0.00 0.02 0.00 88 1009.0
20220927081001 51 285 4.0 8.0 0.00 0.02 0.00 88 1009.1
20220927073745 51 256 4.0 8.0 0.00 0.02 0.00 88 1009.2
20220927071602 51 238 4.0 7.0 0.00 0.02 0.00 87 1009.2
20220927070623 51 247 4.0 7.0 0.00 0.02 0.00 87 1009.1
20220927064501 52 254 3.0 7.0 0.00 0.02 0.00 87 1009.1
20220927063506 52 261 3.0 7.0 0.00 0.02 0.00 87 1009.1
20220927062448 52 250 4.0 11.0 0.00 0.02 0.00 86 1008.9
20220927060339 52 249 4.0 7.0 0.00 0.02 0.00 86 1009.0
20220927055306 52 266 4.0 7.0 0.00 0.02 0.00 86 1008.9
20220927054253 52 246 4.0 7.0 0.00 0.02 0.00 86 1008.8
20220927053225 52 259 4.0 8.0 0.00 0.02 0.00 87 1008.9
20220927052220 52 286 3.0 8.0 0.00 0.02 0.00 87 1008.9
20220927051212 53 256 4.0 7.0 0.00 0.02 0.00 87 1009.0
20220927050226 53 253 4.0 7.0 0.00 0.02 0.00 87 1009.0
20220927045213 53 252 4.0 8.0 0.00 0.02 0.00 87 1009.1
20220927044214 53 246 4.0 12.0 0.00 0.02 0.00 87 1009.0
20220927042011 54 249 4.0 9.0 0.00 0.02 0.00 86 1008.9
20220927040939 54 257 4.0 8.0 0.00 0.02 0.00 87 1008.8
20220927035955 54 254 3.0 10.0 0.00 0.02 0.02 87 1008.8
20220927034930 55 261 3.0 10.0 0.00 0.02 0.02 87 1008.7
20220927033940 55 295 3.0 8.0 0.00 0.02 0.02 88 1008.7
20220927031834 54 295 4.0 9.0 0.00 0.02 0.02 89 1008.6
20220927030848 54 268 3.0 9.0 0.00 0.02 0.02 89 1008.5
20220927025857 54 258 1.0 3.0 0.00 0.02 0.02 87 1008.6
20220927024910 54 318 2.0 7.0 0.00 0.01 0.01 85 1008.8
20220927022732 55 263 5.0 10.0 0.00 0.01 0.01 79 1008.5
20220927021736 56 271 5.0 9.0 0.00 0.01 0.01 77 1008.2
20220927020711 56 255 6.0 11.0 0.00 0.01 0.01 76 1008.1
20220927015647 56 268 6.0 11.0 0.00 0.01 0.01 77 1008.1
20220927013453 56 249 6.0 14.0 0.00 0.01 0.01 78 1007.9
20220927011340 56 302 5.0 12.0 0.00 0.01 0.01 81 1007.9
20220927010325 56 245 6.0 11.0 0.00 0.01 0.01 81 1007.8
20220927003021 56 263 6.0 13.0 0.00 0.01 0.01 80 1007.5
20220927000820 56 257 6.0 12.0 0.00 0.01 0.01 82 1007.3
20220926235842 56 275 6.0 12.0 0.00 0.01 0.01 83 1007.2
20220926232527 56 253 4.0 8.0 0.00 0.01 0.01 84 1007.0
20220926231530 56 263 4.0 13.0 0.00 0.01 0.01 83 1006.9
20220926230520 56 269 5.0 13.0 0.00 0.10 0.01 79 1007.0
20220926225455 58 246 5.0 11.0 0.00 0.09 0.00 73 1006.6
20220926224448 58 248 5.0 12.0 0.00 0.09 0.00 72 1006.3
20220926222315 58 278 6.0 14.0 0.00 0.09 0.00 70 1006.2
20220926221254 59 275 7.0 14.0 0.00 0.09 0.00 70 1006.2
20220926214043 59 252 7.0 13.0 0.00 0.10 0.00 70 1006.2
20220926213013 60 264 6.0 15.0 0.00 0.10 0.00 69 1006.1
20220926212031 60 255 7.0 15.0 0.00 0.10 0.00 68 1006.1
20220926211019 60 250 6.0 14.0 0.00 0.10 0.00 69 1005.9
20220926201522 60 298 9.0 15.0 0.00 0.12 0.00 68 1005.3
20220926200523 59 248 6.0 16.0 0.00 0.13 0.00 71 1005.2
20220926193210 60 257 9.0 16.0 0.00 0.13 0.00 70 1005.1
20220926192204 63 244 6.0 16.0 0.00 0.13 0.00 66 1004.7
20220926184813 61 258 4.0 7.0 0.00 0.13 0.00 79 1004.5
20220926183826 58 272 5.0 15.0 0.00 0.13 0.00 78 1004.7
20220926182831 61 244 7.0 15.0 0.00 0.13 0.00 67 1004.9
20220926181833 63 259 7.0 13.0 0.00 0.13 0.00 64 1004.4
20220926180804 62 254 6.0 14.0 0.00 0.13 0.00 65 1004.6
20220926174623 60 265 11.0 24.0 0.00 0.13 0.00 72 1004.8
20220926172415 61 287 8.0 15.0 0.00 0.13 0.00 73 1004.7
20220926171345 60 272 13.0 24.0 0.00 0.13 0.00 75 1004.8
20220926170326 60 271 13.0 24.0 0.00 0.13 0.00 73 1004.8
20220926165335 60 265 13.0 24.0 0.00 0.13 0.00 73 1004.6
20220926163135 60 298 11.0 20.0 0.00 0.13 0.00 76 1004.6
20220926162155 59 261 11.0 20.0 0.00 0.13 0.00 78 1004.7
20220926160106 59 238 8.0 22.0 0.00 0.13 0.00 66 1004.5
20220926155038 60 248 7.0 14.0 0.00 0.13 0.00 68 1004.5
20220926154033 60 277 7.0 15.0 0.00 0.13 0.00 67 1004.5
20220926153006 61 301 7.0 14.0 0.00 0.13 0.00 67 1004.4
20220926152004 61 298 5.0 14.0 0.00 0.13 0.00 68 1004.4
20220926150957 61 254 6.0 14.0 0.00 0.13 0.00 70 1004.4
20220926143807 59 271 6.0 15.0 0.00 0.13 0.00 75 1004.5
20220926142816 59 268 6.0 14.0 0.00 0.13 0.00 76 1004.4
20220926141750 59 266 6.0 12.0 0.00 0.13 0.00 78 1004.5
20220926140756 58 254 6.0 12.0 0.00 0.13 0.00 77 1004.5
20220926134618 58 261 5.0 12.0 0.00 0.13 0.00 81 1004.3
20220926133554 57 272 6.0 12.0 0.00 0.13 0.00 82 1004.2
20220926132609 57 239 5.0 12.0 0.00 0.13 0.00 84 1004.1
20220926130439 55 259 5.0 9.0 0.00 0.13 0.00 86 1004.0
20220926124353 54 248 4.0 9.0 0.00 0.13 0.00 88 1004.0
20220926123358 54 253 4.0 9.0 0.00 0.13 0.00 89 1004.1
20220926114951 53 253 4.0 7.0 0.00 0.13 0.00 89 1004.1
20220926113925 53 258 4.0 7.0 0.00 0.13 0.00 89 1004.0
20220926112929 53 260 4.0 7.0 0.00 0.13 0.00 89 1003.9
20220926110754 54 258 4.0 9.0 0.00 0.13 0.00 89 1003.7
20220926105743 54 253 4.0 9.0 0.00 0.13 0.00 89 1003.6
20220926104745 54 227 5.0 9.0 0.00 0.13 0.00 89 1003.4
20220926103719 54 271 5.0 8.0 0.00 0.13 0.00 89 1003.4